FW8871 Weather Reports


Display with metric or nautical units.
time (UTC)temp
F
wind
direction
speed
MPH
gust
MPH
rain 1hr
in
rain 24hr
in
rain mn
in
humidity
%
barometer
mb
20260904103545 74 162 13.0 16.0 0.00 0.00 0.00 76 1013.6
20260904103058 74 160 12.0 17.0 0.00 0.00 0.00 76 1013.7
20260904102548 74 132 12.0 17.0 0.00 0.00 0.00 76 1013.6
20260904102045 74 149 12.0 17.0 0.00 0.00 0.00 75 1013.5
20260904101606 74 153 11.0 15.0 0.00 0.00 0.00 75 1013.5
20260904101047 74 143 11.0 15.0 0.00 0.00 0.00 75 1013.6
20260904100545 75 139 11.0 16.0 0.00 0.00 0.00 74 1013.5
20260904100110 75 135 11.0 16.0 0.00 0.00 0.00 74 1013.6
20260904095546 75 160 11.0 16.0 0.00 0.00 0.00 73 1013.6
20260904095046 75 129 12.0 16.0 0.00 0.00 0.00 73 1013.7
20260904094603 75 141 12.0 15.0 0.00 0.00 0.00 72 1013.6
20260904094046 75 150 12.0 15.0 0.00 0.00 0.00 72 1013.5
20260904093548 76 149 11.0 15.0 0.00 0.00 0.00 71 1013.4
20260904093107 76 150 10.0 15.0 0.00 0.00 0.00 71 1013.3
20260904092546 76 148 11.0 15.0 0.00 0.00 0.00 70 1013.4
20260904092045 76 159 10.0 17.0 0.00 0.00 0.00 70 1013.4
20260904091605 77 158 11.0 19.0 0.00 0.00 0.00 69 1013.4
20260904091045 77 157 14.0 19.0 0.00 0.00 0.00 69 1013.5
20260904090545 77 156 11.0 17.0 0.00 0.00 0.00 69 1013.4
20260904090100 77 167 13.0 18.0 0.00 0.00 0.00 69 1013.4
20260904085546 77 150 12.0 18.0 0.00 0.00 0.00 69 1013.3
20260904085048 77 162 13.0 19.0 0.00 0.00 0.00 69 1013.3
20260904084556 77 156 13.0 19.0 0.00 0.00 0.00 68 1013.3
20260904084046 77 148 12.0 18.0 0.00 0.00 0.00 68 1013.4
20260904083545 77 150 13.0 20.0 0.00 0.00 0.00 68 1013.6
20260904083105 77 160 13.0 20.0 0.00 0.00 0.00 68 1013.6
20260904082545 77 150 13.0 19.0 0.00 0.00 0.00 68 1013.5
20260904082046 77 162 12.0 18.0 0.00 0.00 0.00 67 1013.4
20260904081603 77 148 12.0 16.0 0.00 0.00 0.00 67 1013.4
20260904081045 77 161 11.0 16.0 0.00 0.00 0.00 67 1013.3
20260904080546 78 155 12.0 16.0 0.00 0.00 0.00 67 1013.2
20260904080104 78 155 11.0 18.0 0.00 0.00 0.00 66 1013.3
20260904075549 78 156 12.0 18.0 0.00 0.00 0.00 66 1013.4
20260904075046 78 148 11.0 18.0 0.00 0.00 0.00 66 1013.4
20260904074555 78 146 12.0 18.0 0.00 0.00 0.00 66 1013.4
20260904074045 78 152 12.0 18.0 0.00 0.00 0.00 65 1013.4
20260904073559 78 136 12.0 18.0 0.00 0.00 0.00 65 1013.2
20260904073105 78 148 13.0 18.0 0.00 0.00 0.00 65 1013.4
20260904072546 79 157 11.0 19.0 0.00 0.00 0.00 65 1013.4
20260904072045 79 148 13.0 19.0 0.00 0.00 0.00 64 1013.4
20260904071604 79 139 14.0 19.0 0.00 0.00 0.00 64 1013.5
20260904071048 79 157 12.0 17.0 0.00 0.00 0.00 64 1013.5
20260904070547 79 141 12.0 18.0 0.00 0.00 0.00 63 1013.5
20260904065548 80 153 14.0 19.0 0.00 0.00 0.00 63 1013.3
20260904065045 80 143 13.0 19.0 0.00 0.00 0.00 62 1013.3
20260904064618 80 137 13.0 18.0 0.00 0.00 0.00 62 1013.2
20260904064046 80 134 13.0 20.0 0.00 0.00 0.00 62 1013.4
20260904063546 81 155 12.0 20.0 0.00 0.00 0.00 62 1013.5
20260904063106 81 146 13.0 19.0 0.00 0.00 0.00 61 1013.5
20260904062549 81 143 13.0 18.0 0.00 0.00 0.00 61 1013.5
20260904062048 81 148 13.0 18.0 0.00 0.00 0.00 61 1013.3
20260904061603 81 162 12.0 18.0 0.00 0.00 0.00 60 1013.3
20260904061051 81 143 13.0 19.0 0.00 0.00 0.00 60 1013.3
20260904060546 82 124 13.0 21.0 0.00 0.00 0.00 59 1013.4
20260904060100 82 152 14.0 21.0 0.00 0.00 0.00 59 1013.4
20260904055546 82 144 13.0 17.0 0.00 0.00 0.00 58 1013.5
20260904055046 82 131 11.0 18.0 0.00 0.00 0.00 57 1013.4
20260904054557 82 141 11.0 20.0 0.00 0.00 0.00 57 1013.4
20260904054045 83 141 13.0 20.0 0.00 0.00 0.00 56 1013.2
20260904053545 83 153 13.0 20.0 0.00 0.00 0.00 55 1013.2
20260904053059 83 145 13.0 18.0 0.00 0.00 0.00 55 1013.1
20260904052549 83 143 13.0 18.0 0.00 0.00 0.00 54 1013.1
20260904052046 84 136 13.0 20.0 0.00 0.00 0.00 53 1013.1
20260904051607 84 165 15.0 20.0 0.00 0.00 0.00 53 1013.1
20260904051048 84 152 15.0 19.0 0.00 0.00 0.00 53 1013.1
20260904050547 84 143 11.0 20.0 0.00 0.00 0.00 52 1013.0
20260904050120 84 150 13.0 20.0 0.00 0.00 0.00 52 1012.9
20260904045546 84 137 13.0 18.0 0.00 0.00 0.00 52 1012.9
20260904045046 84 166 13.0 19.0 0.00 0.00 0.00 52 1012.7
20260904044602 84 161 12.0 21.0 0.00 0.00 0.00 52 1012.7
20260904044047 84 143 14.0 21.0 0.00 0.00 0.00 51 1012.7
20260904043545 84 146 15.0 21.0 0.00 0.00 0.00 52 1012.7
20260904043104 83 149 12.0 17.0 0.00 0.00 0.00 52 1012.6
20260904042547 83 148 9.0 15.0 0.00 0.00 0.00 51 1012.6
20260904042049 83 147 11.0 15.0 0.00 0.00 0.00 50 1012.6
20260904041615 83 148 9.0 15.0 0.00 0.00 0.00 50 1012.7
20260904041046 83 141 9.0 15.0 0.00 0.00 0.00 49 1012.6
20260904040546 83 143 10.0 14.0 0.00 0.00 0.00 49 1012.5
20260904040056 83 141 9.0 15.0 0.00 0.00 0.00 49 1012.3
20260904035546 83 160 9.0 15.0 0.00 0.00 0.00 48 1012.4
20260904035046 83 149 10.0 15.0 0.00 0.00 0.00 48 1012.4
20260904034614 84 151 10.0 15.0 0.00 0.00 0.00 47 1012.3
20260904034050 84 153 10.0 15.0 0.00 0.00 0.00 47 1012.2
20260904033549 84 174 10.0 15.0 0.00 0.00 0.00 47 1012.1
20260904033105 84 155 9.0 13.0 0.00 0.00 0.00 47 1012.1
20260904032547 84 149 8.0 12.0 0.00 0.00 0.00 47 1012.1
20260904032048 84 153 8.0 13.0 0.00 0.00 0.00 46 1012.0
20260904031604 85 155 9.0 13.0 0.00 0.00 0.00 45 1012.0
20260904031046 85 139 8.0 12.0 0.00 0.00 0.00 45 1011.8
20260904030546 85 161 8.0 11.0 0.00 0.00 0.00 44 1011.7
20260904030055 85 169 8.0 12.0 0.00 0.00 0.00 44 1011.7
20260904025546 86 144 9.0 12.0 0.00 0.00 0.00 44 1011.8
20260904025046 86 150 7.0 12.0 0.00 0.00 0.00 43 1011.7
20260904024607 87 148 8.0 12.0 0.00 0.00 0.00 41 1011.7
20260904024047 87 150 8.0 12.0 0.00 0.00 0.00 41 1011.7
20260904023547 88 149 8.0 12.0 0.00 0.00 0.00 40 1011.5
20260904023102 89 139 9.0 13.0 0.00 0.00 0.00 39 1011.4
20260904022547 89 154 10.0 15.0 0.00 0.00 0.00 39 1011.4
20260904022045 89 160 10.0 15.0 0.00 0.00 0.00 39 1011.4
20260904021603 89 139 10.0 14.0 0.00 0.00 0.00 39 1011.4
20260904021045 88 136 9.0 12.0 0.00 0.00 0.00 39 1011.4
20260904020546 88 124 8.0 12.0 0.00 0.00 0.00 39 1011.6
20260904020101 88 130 7.0 9.0 0.00 0.00 0.00 39 1011.4
20260904015545 88 143 6.0 9.0 0.00 0.00 0.00 39 1011.3
20260904015048 88 148 6.0 9.0 0.00 0.00 0.00 39 1011.2
20260904014628 88 143 5.0 8.0 0.00 0.00 0.00 38 1011.2
20260904014046 89 139 5.0 8.0 0.00 0.00 0.00 36 1011.0
20260904013549 89 143 6.0 8.0 0.00 0.00 0.00 35 1010.9
20260904013104 89 134 6.0 8.0 0.00 0.00 0.00 34 1010.9
20260904012547 90 123 5.0 8.0 0.00 0.00 0.00 33 1010.8
20260904012048 90 139 5.0 7.0 0.00 0.00 0.00 32 1010.9
20260904011609 90 149 5.0 7.0 0.00 0.00 0.00 31 1010.7
20260904011047 91 133 4.0 7.0 0.00 0.00 0.00 31 1010.7
20260904010548 92 132 5.0 8.0 0.00 0.00 0.00 31 1010.4
20260904010101 93 138 6.0 9.0 0.00 0.00 0.00 31 1010.4
20260904005545 93 146 6.0 9.0 0.00 0.00 0.00 31 1010.4
20260904005045 94 145 5.0 11.0 0.00 0.00 0.00 31 1010.6
20260904004557 95 134 7.0 11.0 0.00 0.00 0.00 31 1010.6
20260904004049 96 131 7.0 11.0 0.00 0.00 0.00 31 1010.7
20260904003550 96 154 7.0 12.0 0.00 0.00 0.00 30 1010.6
20260904003104 97 134 7.0 14.0 0.00 0.00 0.00 30 1010.5
20260904002552 97 140 10.0 14.0 0.00 0.00 0.00 30 1010.6
20260904002047 97 150 10.0 14.0 0.00 0.00 0.00 30 1010.5
20260904001602 98 160 10.0 16.0 0.00 0.00 0.00 29 1010.5
20260904001047 97 141 8.0 16.0 0.00 0.00 0.00 29 1010.6
20260904000547 97 144 11.0 16.0 0.00 0.00 0.00 29 1010.6
20260903235547 98 148 11.0 17.0 0.00 0.00 0.00 28 1010.7
20260903235046 99 143 9.0 17.0 0.00 0.00 0.00 27 1010.7
20260903234604 99 150 12.0 17.0 0.00 0.00 0.00 27 1010.7
20260903234048 100 152 12.0 17.0 0.00 0.00 0.00 26 1010.7
20260903233548 100 158 9.0 17.0 0.00 0.00 0.00 25 1010.6
20260903233103 101 124 12.0 16.0 0.00 0.00 0.00 25 1010.7
20260903232547 101 144 10.0 16.0 0.00 0.00 0.00 25 1010.7
20260903232047 101 166 8.0 16.0 0.00 0.00 0.00 23 1010.7
20260903231619 101 130 10.0 16.0 0.00 0.00 0.00 22 1010.5
20260903231046 102 146 7.0 14.0 0.00 0.00 0.00 22 1010.5
20260903230550 102 124 7.0 11.0 0.00 0.00 0.00 19 1010.5
20260903230111 102 149 2.0 11.0 0.00 0.00 0.00 19 1010.4
20260903225548 102 0 5.0 11.0 0.00 0.00 0.00 19 1010.5
20260903225048 102 271 5.0 11.0 0.00 0.00 0.00 18 1010.6
20260903224605 102 218 6.0 11.0 0.00 0.00 0.00 17 1010.7
20260903224047 103 219 7.0 11.0 0.00 0.00 0.00 17 1010.7
20260903223549 103 248 4.0 11.0 0.00 0.00 0.00 17 1010.6
20260903223114 103 128 7.0 14.0 0.00 0.00 0.00 17 1010.7
20260903222546 103 209 5.0 14.0 0.00 0.00 0.00 17 1010.7
20260903222046 103 198 1.0 8.0 0.00 0.00 0.00 17 1010.8
20260903221605 102 253 4.0 12.0 0.00 0.00 0.00 17 1010.8
20260903221045 102 225 7.0 12.0 0.00 0.00 0.00 17 1010.8
20260903220547 102 212 8.0 16.0 0.00 0.00 0.00 17 1010.8
20260903220111 102 207 6.0 16.0 0.00 0.00 0.00 17 1010.9
20260903215546 103 108 5.0 13.0 0.00 0.00 0.00 17 1010.9
20260903215045 103 219 8.0 13.0 0.00 0.00 0.00 17 1010.9
20260903214606 103 146 4.0 11.0 0.00 0.00 0.00 20 1010.9
20260903214049 103 137 5.0 10.0 0.00 0.00 0.00 18 1011.0
20260903213545 103 194 5.0 10.0 0.00 0.00 0.00 17 1011.1
20260903213100 102 228 5.0 10.0 0.00 0.00 0.00 18 1011.1
20260903212545 103 270 4.0 8.0 0.00 0.00 0.00 19 1011.0
20260903212047 102 218 0.0 17.0 0.00 0.00 0.00 19 1011.2
20260903211616 102 266 4.0 17.0 0.00 0.00 0.00 19 1011.2
20260903211050 102 187 7.0 13.0 0.00 0.00 0.00 19 1011.3
20260903210549 102 217 8.0 16.0 0.00 0.00 0.00 20 1011.3
20260903205545 101 173 6.0 17.0 0.00 0.00 0.00 22 1011.4
20260903205045 101 204 8.0 17.0 0.00 0.00 0.00 22 1011.5
20260903204607 102 189 8.0 16.0 0.00 0.00 0.00 22 1011.6
20260903204047 102 161 8.0 13.0 0.00 0.00 0.00 23 1011.6
20260903203548 102 186 4.0 12.0 0.00 0.00 0.00 22 1011.6
20260903203100 101 230 7.0 13.0 0.00 0.00 0.00 24 1011.7
20260903202546 101 168 8.0 14.0 0.00 0.00 0.00 23 1011.7
20260903202049 101 191 8.0 14.0 0.00 0.00 0.00 24 1011.8
20260903201606 101 186 4.0 12.0 0.00 0.00 0.00 22 1011.8
20260903201045 101 198 8.0 12.0 0.00 0.00 0.00 22 1011.9
20260903200545 101 217 7.0 12.0 0.00 0.00 0.00 23 1011.9
20260903200110 100 190 3.0 14.0 0.00 0.00 0.00 23 1011.8
20260903195545 100 214 4.0 14.0 0.00 0.00 0.00 24 1011.8
20260903195050 100 165 9.0 14.0 0.00 0.00 0.00 24 1011.9
20260903194605 100 184 7.0 14.0 0.00 0.00 0.00 24 1011.9
20260903194046 99 228 5.0 12.0 0.00 0.00 0.00 25 1011.8
20260903193546 99 197 4.0 16.0 0.00 0.00 0.00 26 1012.0
20260903193107 99 246 10.0 18.0 0.00 0.00 0.00 26 1012.1
20260903192545 99 193 7.0 18.0 0.00 0.00 0.00 26 1012.1
20260903192046 99 146 10.0 20.0 0.00 0.00 0.00 27 1012.2
20260903191609 99 167 10.0 20.0 0.00 0.00 0.00 27 1012.1
20260903191047 99 218 10.0 17.0 0.00 0.00 0.00 27 1012.2
20260903190550 98 207 8.0 17.0 0.00 0.00 0.00 28 1012.2
20260903190106 98 146 11.0 17.0 0.00 0.00 0.00 28 1012.3
20260903185546 97 240 10.0 17.0 0.00 0.00 0.00 28 1012.4
20260903185047 97 193 10.0 17.0 0.00 0.00 0.00 28 1012.5
20260903184610 97 191 8.0 17.0 0.00 0.00 0.00 29 1012.5
20260903184046 97 192 9.0 17.0 0.00 0.00 0.00 28 1012.7
20260903183546 96 152 8.0 17.0 0.00 0.00 0.00 30 1012.7
20260903183122 96 248 10.0 17.0 0.00 0.00 0.00 31 1012.8
20260903182546 96 233 7.0 15.0 0.00 0.00 0.00 30 1012.9
20260903182047 96 229 9.0 14.0 0.00 0.00 0.00 30 1013.0
20260903181643 95 226 10.0 16.0 0.00 0.00 0.00 32 1013.0
20260903181048 95 221 9.0 16.0 0.00 0.00 0.00 33 1013.0
20260903180547 94 188 10.0 16.0 0.00 0.00 0.00 32 1013.1
20260903180109 94 197 10.0 16.0 0.00 0.00 0.00 34 1013.2
20260903175546 94 210 11.0 16.0 0.00 0.00 0.00 36 1013.3
20260903175048 93 210 11.0 16.0 0.00 0.00 0.00 36 1013.2
20260903174614 92 241 11.0 17.0 0.00 0.00 0.00 36 1013.3
20260903174046 92 215 12.0 17.0 0.00 0.00 0.00 37 1013.5
20260903173548 92 230 12.0 16.0 0.00 0.00 0.00 36 1013.4
20260903173112 92 243 11.0 16.0 0.00 0.00 0.00 36 1013.4
20260903172548 92 246 12.0 16.0 0.00 0.00 0.00 37 1013.5
20260903172045 92 221 11.0 17.0 0.00 0.00 0.00 38 1013.5
20260903171606 92 233 12.0 19.0 0.00 0.00 0.00 37 1013.6
20260903171046 91 226 13.0 19.0 0.00 0.00 0.00 39 1013.6
20260903170546 91 203 10.0 18.0 0.00 0.00 0.00 38 1013.6
20260903170114 91 200 13.0 18.0 0.00 0.00 0.00 39 1013.6
20260903165545 90 205 13.0 17.0 0.00 0.00 0.00 39 1013.6
20260903165047 91 231 12.0 17.0 0.00 0.00 0.00 38 1013.4
20260903164610 91 210 11.0 21.0 0.00 0.00 0.00 39 1013.4
20260903164046 92 222 13.0 21.0 0.00 0.00 0.00 39 1013.5
20260903163546 91 203 14.0 21.0 0.00 0.00 0.00 40 1013.5
20260903163102 91 178 14.0 20.0 0.00 0.00 0.00 41 1013.4
20260903162548 91 197 15.0 20.0 0.00 0.00 0.00 40 1013.5
20260903162048 90 223 13.0 19.0 0.00 0.00 0.00 42 1013.4
20260903161617 89 229 13.0 20.0 0.00 0.00 0.00 42 1013.6
20260903161048 89 191 13.0 20.0 0.00 0.00 0.00 43 1013.4
20260903160546 89 175 13.0 21.0 0.00 0.00 0.00 44 1013.6
20260903160105 88 238 12.0 21.0 0.00 0.00 0.00 45 1013.5
20260903155545 88 208 15.0 20.0 0.00 0.00 0.00 45 1013.5
20260903155046 87 207 13.0 21.0 0.00 0.00 0.00 45 1013.6
20260903154604 87 204 15.0 21.0 0.00 0.00 0.00 46 1013.6
20260903154045 87 231 16.0 23.0 0.00 0.00 0.00 46 1013.6
20260903153546 87 200 16.0 25.0 0.00 0.00 0.00 46 1013.5
20260903153107 87 196 14.0 25.0 0.00 0.00 0.00 46 1013.6
20260903152548 86 202 18.0 25.0 0.00 0.00 0.00 47 1013.5
20260903152045 86 191 16.0 24.0 0.00 0.00 0.00 48 1013.6
20260903151617 85 181 17.0 25.0 0.00 0.00 0.00 49 1013.5
20260903151045 85 209 16.0 25.0 0.00 0.00 0.00 49 1013.4
20260903150547 84 203 16.0 25.0 0.00 0.00 0.00 51 1013.5
20260903150104 84 193 17.0 25.0 0.00 0.00 0.00 52 1013.4
20260903145549 84 186 16.0 24.0 0.00 0.00 0.00 53 1013.5
20260903145046 83 210 16.0 27.0 0.00 0.00 0.00 53 1013.4
20260903144607 83 203 14.0 27.0 0.00 0.00 0.00 54 1013.5
20260903144046 82 181 14.0 27.0 0.00 0.00 0.00 55 1013.6
20260903143547 82 162 18.0 25.0 0.00 0.00 0.00 55 1013.6
20260903143108 82 149 18.0 25.0 0.00 0.00 0.00 56 1013.6
20260903142546 82 175 16.0 23.0 0.00 0.00 0.00 56 1013.6
20260903142046 81 170 17.0 23.0 0.00 0.00 0.00 57 1013.5
20260903141605 81 162 16.0 23.0 0.00 0.00 0.00 58 1013.5
20260903141048 81 178 15.0 23.0 0.00 0.00 0.00 58 1013.6
20260903140546 80 162 15.0 22.0 0.00 0.00 0.00 59 1013.6
20260903140105 80 182 15.0 22.0 0.00 0.00 0.00 59 1013.5
20260903135546 80 165 15.0 20.0 0.00 0.00 0.00 59 1013.8
20260903135046 79 155 12.0 20.0 0.00 0.00 0.00 60 1013.8
20260903134610 79 198 13.0 18.0 0.00 0.00 0.00 61 1013.8
20260903134047 78 202 13.0 19.0 0.00 0.00 0.00 62 1013.8
20260903133548 78 186 13.0 19.0 0.00 0.00 0.00 63 1013.7
20260903133102 78 144 13.0 19.0 0.00 0.00 0.00 63 1013.7
20260903132547 77 174 13.0 19.0 0.00 0.00 0.00 64 1013.7
20260903132046 77 139 13.0 19.0 0.00 0.00 0.00 64 1013.6
20260903131558 76 167 13.0 19.0 0.00 0.00 0.00 65 1013.5
20260903131050 75 146 12.0 16.0 0.00 0.00 0.00 66 1013.4
20260903130552 75 158 12.0 17.0 0.00 0.00 0.00 67 1013.3
20260903130106 75 158 13.0 17.0 0.00 0.00 0.00 66 1013.2
20260903125549 75 155 12.0 17.0 0.00 0.00 0.00 66 1013.2
20260903125050 75 167 12.0 17.0 0.00 0.00 0.00 67 1013.2
20260903124606 75 152 12.0 18.0 0.00 0.00 0.00 67 1013.2
20260903124049 75 176 12.0 18.0 0.00 0.00 0.00 67 1013.2
20260903123550 74 178 13.0 18.0 0.00 0.00 0.00 68 1013.1
20260903123056 74 158 13.0 19.0 0.00 0.00 0.00 68 1013.0
20260903122550 74 139 13.0 19.0 0.00 0.00 0.00 68 1013.0
20260903122050 74 160 13.0 18.0 0.00 0.00 0.00 68 1013.0
20260903121607 74 171 12.0 18.0 0.00 0.00 0.00 68 1012.9
20260903121049 74 185 13.0 19.0 0.00 0.00 0.00 67 1013.0
20260903120549 75 174 14.0 19.0 0.00 0.00 0.00 67 1013.0
20260903120105 75 184 13.0 19.0 0.00 0.00 0.00 67 1013.0
20260903115549 75 158 14.0 20.0 0.00 0.00 0.00 66 1013.1
20260903115049 75 137 13.0 20.0 0.00 0.00 0.00 66 1013.0
20260903114604 75 167 14.0 20.0 0.00 0.00 0.00 66 1013.0
20260903114046 75 155 14.0 20.0 0.00 0.00 0.00 66 1012.9
20260903113554 75 162 14.0 20.0 0.00 0.00 0.00 66 1012.9
20260903113107 75 157 14.0 20.0 0.00 0.00 0.00 66 1012.9
20260903112554 75 183 13.0 20.0 0.00 0.00 0.00 66 1013.0
20260903112050 75 136 13.0 19.0 0.00 0.00 0.00 66 1013.0
20260903111601 75 172 13.0 19.0 0.00 0.00 0.00 66 1013.1
20260903111049 75 180 13.0 18.0 0.00 0.00 0.00 65 1013.1
20260903110550 75 163 14.0 18.0 0.00 0.00 0.00 65 1013.1
20260903105550 75 142 14.0 19.0 0.00 0.00 0.00 65 1013.1
20260903105050 75 158 12.0 20.0 0.00 0.00 0.00 65 1013.1
20260903104601 75 162 14.0 21.0 0.00 0.00 0.00 64 1013.0
20260903104049 75 152 14.0 21.0 0.00 0.00 0.00 64 1013.1